DW4974 Weather Reports


time (UTC)temp
F
wind
direction
speed
knots
gust
knots
rain 1hr
in
rain 24hr
in
rain mn
in
humidity
%
barometer
mb
20260510192548 65 88 4.3 8.7 0.00 0.16 0.11 61 1021.4
20260510191545 63 88 0.9 7.8 0.00 0.16 0.11 64 1021.5
20260510190527 62 88 4.3 8.7 0.00 0.16 0.11 70 1021.5
20260510185538 61 88 0.9 8.7 0.00 0.16 0.11 71 1021.8
20260510184552 60 88 0.0 7.0 0.00 0.16 0.11 76 1021.6
20260510183535 58 88 0.0 7.0 0.00 0.16 0.11 78 1021.4
20260510182544 57 88 0.0 6.1 0.00 0.16 0.11 80 1021.9
20260510181529 57 88 2.6 6.1 0.00 0.16 0.11 80 1021.4
20260510180525 57 88 1.7 5.2 0.01 0.16 0.11 81 1021.6
20260510175536 57 88 1.7 4.3 0.02 0.16 0.11 81 1021.6
20260510174523 57 88 0.9 5.2 0.02 0.16 0.11 81 1022.0
20260510173529 56 88 0.0 6.1 0.02 0.16 0.11 82 1021.5
20260510172519 56 88 1.7 5.2 0.03 0.16 0.11 82 1021.6
20260510171528 56 88 0.0 2.6 0.04 0.16 0.11 81 1021.5
20260510170536 55 88 0.0 6.1 0.03 0.15 0.10 81 1021.2
20260510165528 55 88 2.6 5.2 0.03 0.14 0.09 82 1021.1
20260510164533 55 88 1.7 7.8 0.03 0.14 0.09 81 1021.0
20260510163556 56 88 3.5 6.1 0.03 0.14 0.09 79 1020.3
20260510162523 56 88 5.2 9.6 0.02 0.13 0.08 77 1020.2
20260510161528 57 88 3.5 9.6 0.01 0.12 0.07 74 1020.5
20260510160528 57 89 5.2 12.2 0.01 0.12 0.07 72 1020.5
20260510155535 58 91 5.2 11.3 0.00 0.11 0.06 70 1020.7
20260510154535 58 92 8.7 13.9 0.00 0.11 0.06 69 1020.1
20260510153531 58 98 8.7 13.0 0.00 0.11 0.06 70 1019.8
20260510152539 58 103 7.0 13.0 0.00 0.11 0.06 72 1019.7
20260510151526 58 106 7.8 12.2 0.00 0.11 0.06 74 1020.2
20260510150532 57 108 7.0 10.4 0.00 0.11 0.06 76 1020.1
20260510145543 57 109 5.2 10.4 0.00 0.11 0.06 77 1020.0
20260510144526 58 109 7.0 13.0 0.00 0.11 0.06 77 1020.1
20260510143531 58 116 7.0 11.3 0.00 0.11 0.06 79 1019.8
20260510142525 58 113 6.1 12.2 0.00 0.11 0.06 80 1019.7
20260510141530 58 117 4.3 12.2 0.00 0.11 0.06 81 1019.4
20260510140539 58 121 4.3 10.4 0.01 0.11 0.06 82 1019.6
20260510135523 58 123 2.6 8.7 0.02 0.11 0.06 83 1019.7
20260510134531 58 123 3.5 8.7 0.04 0.11 0.06 84 1019.3
20260510133532 58 360 1.7 4.3 0.05 0.11 0.06 85 1019.0
20260510132528 58 131 1.7 6.1 0.06 0.11 0.06 85 1018.8
20260510131555 58 134 0.9 4.3 0.06 0.11 0.06 84 1018.3
20260510130553 58 134 0.9 4.3 0.05 0.10 0.05 84 1018.0
20260510125527 58 134 0.0 1.7 0.04 0.09 0.04 83 1017.8
20260510124517 59 134 0.0 0.9 0.02 0.07 0.02 82 1018.2
20260510123532 59 133 0.0 1.7 0.01 0.06 0.01 81 1018.5
20260510122519 59 133 0.0 0.9 0.00 0.05 0.00 81 1017.9
20260510121531 59 133 0.0 0.9 0.00 0.05 0.00 80 1018.1
20260510120519 59 133 0.0 1.7 0.00 0.05 0.00 79 1018.1
20260510115532 59 133 0.0 0.9 0.00 0.05 0.00 79 1018.0
20260510114522 59 133 0.0 4.3 0.00 0.05 0.00 79 1017.2
20260510113536 59 125 0.0 1.7 0.00 0.05 0.00 79 1017.0
20260510112520 59 125 0.0 0.9 0.00 0.05 0.00 79 1016.2
20260510111528 58 125 0.0 2.6 0.00 0.05 0.00 80 1015.5
20260510110534 58 125 0.0 1.7 0.00 0.05 0.00 80 1015.5
20260510105521 58 125 0.9 1.7 0.00 0.05 0.00 81 1015.0
20260510104529 57 125 0.0 1.7 0.00 0.05 0.00 82 1014.5
20260510103518 57 125 0.0 1.7 0.00 0.05 0.00 82 1014.0
20260510102522 58 125 0.0 1.7 0.00 0.05 0.00 81 1013.8
20260510101522 58 125 0.0 1.7 0.00 0.05 0.00 81 1013.7
20260510100535 58 125 0.0 2.6 0.00 0.05 0.00 81 1013.6
20260510095525 58 125 0.0 1.7 0.00 0.05 0.00 80 1013.7
20260510094514 58 125 0.0 1.7 0.00 0.05 0.00 80 1013.9
20260510093524 57 125 0.0 0.0 0.00 0.05 0.00 79 1013.9
20260510092520 57 125 0.0 0.0 0.00 0.05 0.00 78 1013.7
20260510091555 58 125 0.0 1.7 0.00 0.05 0.00 76 1013.6
20260510090548 59 125 0.0 0.0 0.00 0.05 0.00 76 1013.9
20260510085528 59 125 0.0 0.9 0.00 0.05 0.00 77 1013.8
20260510084520 59 125 0.0 0.0 0.00 0.05 0.00 77 1013.6
20260510083523 59 125 0.0 2.6 0.00 0.05 0.00 77 1013.7
20260510082532 59 125 0.9 1.7 0.00 0.05 0.00 76 1013.3
20260510081531 59 125 0.0 1.7 0.00 0.05 0.00 72 1012.9
20260510080535 60 125 0.0 2.6 0.00 0.05 0.00 70 1012.7
20260510075550 61 125 0.0 2.6 0.00 0.05 0.00 68 1012.6
20260510074540 62 125 0.0 0.0 0.00 0.05 0.00 67 1012.5
20260510073526 62 125 0.0 0.0 0.00 0.05 0.00 66 1012.5
20260510072558 63 125 0.0 0.0 0.00 0.05 0.00 66 1012.6
20260510071545 63 125 0.0 0.9 0.00 0.05 0.00 65 1012.8
20260510070536 64 125 0.0 0.9 0.00 0.05 0.00 63 1012.5
20260510065519 66 125 0.0 0.0 0.00 0.05 0.00 58 1012.3
20260510064528 67 125 0.0 0.0 0.00 0.05 0.00 54 1012.2
20260510063542 67 125 0.0 4.3 0.00 0.05 0.00 52 1011.8
20260510062530 68 125 0.0 6.1 0.00 0.05 0.00 51 1011.3
20260510061523 68 126 0.9 5.2 0.00 0.05 0.00 53 1011.1
20260510060550 68 126 0.9 8.7 0.00 0.05 0.00 54 1010.8
20260510055523 68 128 4.3 8.7 0.00 0.05 0.00 55 1010.2
20260510054518 68 132 2.6 7.8 0.01 0.05 0.00 55 1010.7
20260510053547 69 133 2.6 12.2 0.01 0.05 0.00 53 1010.1
20260510052523 69 360 7.8 14.8 0.01 0.05 0.00 54 1008.7
20260510051554 68 360 9.6 15.6 0.01 0.05 0.00 54 1008.1
20260510050555 68 360 11.3 20.0 0.01 0.05 0.00 55 1007.3
20260510045554 68 360 13.0 16.5 0.03 0.05 0.05 57 1007.5
20260510044524 68 360 10.4 14.8 0.02 0.04 0.04 58 1009.7
20260510043528 67 170 7.0 14.8 0.03 0.04 0.04 61 1010.2
20260510042524 66 163 7.8 15.6 0.04 0.04 0.04 63 1009.9
20260510041528 66 124 11.3 21.7 0.04 0.04 0.04 66 1009.5
20260510040550 66 133 9.6 15.6 0.04 0.04 0.04 65 1011.2
20260510035517 65 201 6.1 11.3 0.02 0.02 0.02 65 1013.0
20260510034551 66 117 0.9 10.4 0.02 0.02 0.02 66 1013.3
20260510033526 68 105 9.6 11.3 0.01 0.01 0.01 63 1012.0
20260510032538 71 35 5.2 7.0 0.00 0.00 0.00 56 1013.5
20260510031532 71 5 0.9 6.1 0.00 0.00 0.00 50 1014.9
20260510030538 70 5 4.3 12.2 0.00 0.00 0.00 53 1014.8
20260510025539 71 18 3.5 7.8 0.00 0.00 0.00 48 1014.0
20260510024520 72 19 0.9 5.2 0.00 0.00 0.00 45 1013.4
20260510023527 73 19 0.9 5.2 0.00 0.00 0.00 44 1012.7
20260510022535 72 19 0.9 5.2 0.00 0.00 0.00 44 1011.3
20260510021524 72 19 0.9 6.1 0.00 0.00 0.00 45 1010.5
20260510020536 72 19 4.3 7.0 0.00 0.00 0.00 45 1009.6
20260510015526 73 18 4.3 7.8 0.00 0.00 0.00 44 1009.5
20260510014521 73 15 4.3 9.6 0.00 0.00 0.00 43 1009.5
20260510013528 73 12 2.6 8.7 0.00 0.00 0.00 44 1009.3
20260510012527 73 11 4.3 7.0 0.00 0.00 0.00 44 1009.0
20260510011535 73 10 0.0 6.1 0.00 0.00 0.00 43 1008.7
20260510010554 74 10 0.0 5.2 0.00 0.00 0.00 43 1008.5
20260510005521 75 10 3.5 6.1 0.00 0.00 0.00 41 1008.4
20260510004514 77 9 0.0 7.8 0.00 0.00 0.00 39 1008.2
20260510003523 78 9 3.5 9.6 0.00 0.00 0.00 35 1007.9
20260510002536 79 5 0.0 7.8 0.00 0.00 0.00 36 1008.0
20260510001557 80 5 5.2 7.8 0.00 0.00 0.00 32 1008.1
20260510000522 80 360 2.6 8.7 0.00 0.00 0.00 34 1008.0
20260509235525 81 360 6.1 9.6 0.00 0.00 0.00 31 1008.0
20260509234534 81 355 6.1 8.7 0.00 0.00 0.00 30 1008.1
20260509233553 82 348 6.1 7.8 0.00 0.00 0.00 30 1008.1
20260509232520 82 346 3.5 8.7 0.00 0.00 0.00 31 1008.0
20260509231530 83 342 5.2 9.6 0.00 0.00 0.00 29 1008.1
20260509230522 83 338 5.2 8.7 0.00 0.00 0.00 29 1008.2
20260509225535 84 327 4.3 10.4 0.00 0.00 0.00 28 1008.2
20260509224527 84 324 5.2 7.8 0.00 0.00 0.00 29 1008.1
20260509223557 84 323 4.3 8.7 0.00 0.00 0.00 28 1008.1
20260509222551 84 322 6.1 10.4 0.00 0.00 0.00 27 1008.2
20260509221529 85 312 4.3 9.6 0.00 0.00 0.00 29 1008.0
20260509220530 85 309 5.2 8.7 0.00 0.00 0.00 24 1008.1
20260509215549 85 360 3.5 7.8 0.00 0.00 0.00 25 1008.1
20260509214552 85 360 3.5 8.7 0.00 0.00 0.00 23 1008.2
20260509213537 86 360 0.0 8.7 0.00 0.00 0.00 22 1008.3
20260509212521 86 305 0.9 10.4 0.00 0.00 0.00 24 1008.4
20260509211535 86 360 0.9 7.8 0.00 0.00 0.00 24 1008.5
20260509210552 86 360 2.6 7.8 0.00 0.00 0.00 24 1008.6
20260509205521 86 360 1.7 7.8 0.00 0.00 0.00 25 1008.7
20260509204528 86 360 3.5 8.7 0.00 0.00 0.00 25 1008.9
20260509203534 86 297 0.0 2.6 0.00 0.00 0.00 27 1009.0
20260509202520 86 360 4.3 6.1 0.00 0.00 0.00 27 1009.3
20260509201557 86 360 0.0 4.3 0.00 0.00 0.00 22 1009.3
20260509200520 85 360 0.0 1.7 0.00 0.00 0.00 24 1009.5
20260509195531 85 360 0.9 5.2 0.00 0.00 0.00 22 1009.7
20260509194529 84 293 0.0 4.3 0.00 0.00 0.00 21 1009.9
20260509193531 84 360 0.0 7.0 0.00 0.00 0.00 23 1010.0